Location: Cardiff
(53.7833°N, 113.6000°W)
Time: 05:43:34
(UTC+00:00)

SO-50 - Pass Details

Date: 06 December 2023
Orbit: 608 x 660 km, 64.6° (Epoch: 02 March)

Event Time Altitude Azimuth Distance (km) Brightness Sun altitude
Exits shadow 13:24:59 28° 323° (NW) 1,205 ? -18.0°
Maximum altitude 13:25:36 29° 338° (NNW) 1,177 ? -17.9°
Drops below altitude 10° 13:29:40 10° 39° (NE) 2,036 ? -17.4°
Sets 13:32:12 0° 51° (NE) 2,936 ? -17.0°
